EW1269 Kruse Junction Marysville WA US current weather conditions

sailwx.info

Wind from 147

Air temperature 9.4° C
Dewpoint 8.7° C

Last reported at 2020-Jan-28 22:23 UTC.
Time now 2020-Jan-29 02:20 UTC

Location: N 48°07' W 122°10'.
View on Google Maps.

See reports from other nearby stations

  
Tides and Currents Weather Stations Pressure Air Temp Water Temp Dewpoint Dewpoint Depression Visibility Wind Speed Wind Dir Waves Ship Positions
date/time (UTC)wind fromknots sea level pressurealtimeterstation pressurevisibilityair tempwater tempwave heightnotes
2020-Jan-28 22:23 147 9.4
2020-Jan-28 22:13 147 9.4
2020-Jan-28 22:03 147 9.4
2020-Jan-28 21:53 147 8.9
2020-Jan-28 21:43 147 9.4
2020-Jan-28 21:33 147 8.9
2020-Jan-28 21:23 147 8.9
2020-Jan-28 21:13 147 8.9
2020-Jan-28 21:03 147 8.9
2020-Jan-28 20:53 147 8.9
2020-Jan-28 20:43 147 8.3
2020-Jan-28 20:33 147 8.3
2020-Jan-28 20:23 147 8.3
2020-Jan-28 20:13 147 8.3
2020-Jan-28 20:03 147 8.3
2020-Jan-28 19:53 147 8.3
2020-Jan-28 19:43 147 8.3
2020-Jan-28 19:33 147 8.3
2020-Jan-28 19:23 147 8.3
2020-Jan-28 19:13 147 8.3
2020-Jan-28 19:03 147 8.3
2020-Jan-28 18:53 147 8.3
2020-Jan-28 18:43 147 8.3
2020-Jan-28 18:33 147 8.3
2020-Jan-28 18:23 147 8.3
2020-Jan-28 18:13 147 7.8
2020-Jan-28 18:03 163 1 gusting 5 7.8
2020-Jan-28 17:53 138 7.8
2020-Jan-28 17:33 142 7.8
2020-Jan-28 16:44 100 284 gusting 284 7.2
2020-Jan-28 14:44 096 7.2
2020-Jan-28 13:45 339 284 gusting 284 7.2
2020-Jan-28 09:13 138 2 gusting 6 7.8
2020-Jan-28 08:44 205 1 gusting 5 7.8
2020-Jan-28 07:34 177 3 gusting 6 7.2
2020-Jan-28 05:35 188 284 gusting 284 7.2
2020-Jan-28 04:15 189 284 gusting 284 8.3
2020-Jan-28 03:24 167 7.8
2020-Jan-28 02:43 107 8.3
2020-Jan-28 02:13 154 0 gusting 6 8.9
2020-Jan-28 02:03 110 1 gusting 7 8.9
2020-Jan-28 01:54 109 0 gusting 5 9.4
2020-Jan-28 01:24 126 284 gusting 284 10.0
2020-Jan-28 01:03 142 5 gusting 12 10.0
2020-Jan-28 00:53 133 0 gusting 4 9.4
2020-Jan-28 00:43 160 10.0
2020-Jan-28 00:33 160 10.0
2020-Jan-28 00:23 119 10.0
2020-Jan-28 00:13 119 10.0
2020-Jan-28 00:03 119 10.0
2020-Jan-27 23:53 119 10.0
2020-Jan-27 23:43 119 10.6
2020-Jan-27 23:33 119 10.6
2020-Jan-27 23:23 133 10.6
2020-Jan-27 23:13 103 1 gusting 6 10.6
2020-Jan-27 23:03 109 10.6
2020-Jan-27 22:53 124 10.6
2020-Jan-27 22:43 125 11.1
2020-Jan-27 22:33 123 11.1
2020-Jan-27 22:23 122 0 gusting 6 11.1
2020-Jan-27 22:13 146 0 gusting 6 11.1
2020-Jan-27 22:03 126 0 gusting 6 11.1
2020-Jan-27 21:53 115 11.1
2020-Jan-27 21:43 157 11.1
2020-Jan-27 21:33 130 0 gusting 8 11.1
2020-Jan-27 21:23 147 11.1
2020-Jan-27 21:13 208 2 gusting 7 11.1
2020-Jan-27 21:03 134 4 gusting 8 11.1
2020-Jan-27 20:53 151 12.2
2020-Jan-27 20:43 165 2 gusting 10 12.2
2020-Jan-27 20:33 163 12.2
2020-Jan-27 20:23 178 11.7
2020-Jan-27 20:13 169 2 gusting 7 11.1
2020-Jan-27 20:03 119 0 gusting 9 11.1
2020-Jan-27 19:53 157 2 gusting 7 11.1
2020-Jan-27 19:43 130 0 gusting 8 10.6
2020-Jan-27 19:33 091 3 gusting 7 10.6
2020-Jan-27 19:23 147 1 gusting 9 10.6
2020-Jan-27 19:13 192 0 gusting 7 10.6
2020-Jan-27 19:03 159 1 gusting 7 10.0
2020-Jan-27 18:53 135 1 gusting 6 10.0
2020-Jan-27 18:43 134 0 gusting 6 9.4
2020-Jan-27 18:33 138 2 gusting 6 9.4
2020-Jan-27 18:23 117 9.4
2020-Jan-27 18:13 121 8.9
2020-Jan-27 18:03 186 0 gusting 5 8.9
2020-Jan-27 17:53 134 0 gusting 6 8.9
2020-Jan-27 17:43 187 0 gusting 6 8.9
2020-Jan-27 17:33 127 8.9
2020-Jan-27 17:23 153 8.9
2020-Jan-27 17:13 161 0 gusting 6 8.9
2020-Jan-27 17:03 118 1 gusting 6 8.9
2020-Jan-27 16:53 156 2 gusting 7 8.3
2020-Jan-27 16:43 138 7.8
2020-Jan-27 16:33 135 3 gusting 8 7.8
2020-Jan-27 16:23 136 7.8
2020-Jan-27 16:13 138 0 gusting 5 7.8
2020-Jan-27 16:03 125 0 gusting 6 7.8
2020-Jan-27 15:53 152 2 gusting 6 7.8
2020-Jan-27 15:43 144 0 gusting 7 7.8
2020-Jan-27 15:33 156 7.8
2020-Jan-27 15:23 173 7.8
2020-Jan-27 15:13 150 1 gusting 7 7.8
2020-Jan-27 15:03 176 7.8
2020-Jan-27 14:53 154 1 gusting 7 7.8
2020-Jan-27 14:43 172 1 gusting 6 7.8
2020-Jan-27 14:33 167 3 gusting 6 7.8
2020-Jan-27 14:23 136 0 gusting 5 7.8
2020-Jan-27 14:13 234 4 gusting 13 7.8
2020-Jan-27 14:03 160 0 gusting 7 7.8
2020-Jan-27 13:53 136 2 gusting 6 7.8
2020-Jan-27 13:43 182 2 gusting 6 7.8
2020-Jan-27 13:33 196 2 gusting 6 7.8
2020-Jan-27 13:23 194 1 gusting 6 7.8
2020-Jan-27 13:13 173 4 gusting 8 7.8
2020-Jan-27 13:03 130 5 gusting 8 8.3
2020-Jan-27 12:53 177 0 gusting 10 8.3
2020-Jan-27 12:43 169 2 gusting 8 8.3
2020-Jan-27 12:33 175 2 gusting 9 8.3
2020-Jan-27 12:23 194 2 gusting 8 8.3
2020-Jan-27 12:13 194 3 gusting 12 8.3
2020-Jan-27 12:03 198 1 gusting 12 8.3
2020-Jan-27 11:53 185 1 gusting 10 8.3
2020-Jan-27 11:43 165 6 gusting 12 8.3
2020-Jan-27 11:33 182 5 gusting 10 8.3
2020-Jan-27 11:23 201 4 gusting 13 8.3
2020-Jan-27 11:13 202 6 gusting 11 8.3
2020-Jan-27 11:03 178 5 gusting 10 8.3
2020-Jan-27 10:53 150 6 gusting 11 8.3
2020-Jan-27 10:43 161 5 gusting 10 8.3
2020-Jan-27 10:33 168 4 gusting 8 8.3
2020-Jan-27 10:23 144 2 gusting 6 8.3
2020-Jan-27 10:13 178 0 gusting 11 8.3
2020-Jan-27 10:03 183 1 gusting 12 8.3
2020-Jan-27 09:53 180 6 gusting 10 8.3
2020-Jan-27 09:43 195 5 gusting 10 8.3
2020-Jan-27 09:33 177 1 gusting 11 8.9
2020-Jan-27 09:23 176 4 gusting 12 8.9
2020-Jan-27 09:13 173 3 gusting 6 8.9
2020-Jan-27 09:03 142 0 gusting 8 8.3
2020-Jan-27 08:53 193 0 gusting 5 8.3
2020-Jan-27 08:43 175 1 gusting 6 8.3
2020-Jan-27 08:33 171 8.3
2020-Jan-27 08:23 171 8.3
2020-Jan-27 08:13 178 2 gusting 5 8.3
2020-Jan-27 08:03 191 0 gusting 6 8.3
2020-Jan-27 07:53 194 8.3
2020-Jan-27 07:43 164 0 gusting 8 8.3
2020-Jan-27 07:33 175 3 gusting 8 8.3
2020-Jan-27 07:23 171 8.3
2020-Jan-27 07:13 142 0 gusting 9 8.3
2020-Jan-27 07:03 140 4 gusting 9 8.3
2020-Jan-27 06:53 200 2 gusting 8 7.8
2020-Jan-27 06:43 142 6 gusting 10 7.8
2020-Jan-27 06:33 145 4 gusting 12 8.3
2020-Jan-27 06:23 136 3 gusting 9 7.8
2020-Jan-27 06:13 146 7.8
2020-Jan-27 06:03 159 7.8
2020-Jan-27 05:53 156 7.8
2020-Jan-27 05:43 134 7.8
2020-Jan-27 05:33 140 0 gusting 5 8.3
2020-Jan-27 05:23 139 8.3
2020-Jan-27 05:13 175 0 gusting 7 8.3
2020-Jan-27 05:03 130 0 gusting 5 8.3
2020-Jan-27 04:53 136 8.3
2020-Jan-27 04:43 136 1 gusting 6 8.3
2020-Jan-27 04:33 180 2 gusting 7 8.3
2020-Jan-27 04:23 136 8.3
2020-Jan-27 04:13 162 8.3
2020-Jan-27 04:03 183 8.9
2020-Jan-27 03:53 183 0 gusting 5 8.9
2020-Jan-27 03:43 146 8.9
2020-Jan-27 03:33 100 8.9
2020-Jan-27 03:23 138 8.9
2020-Jan-27 03:13 138 8.9
2020-Jan-27 03:03 118 2 gusting 7 8.9
2020-Jan-27 02:53 127 3 gusting 7 8.9
2020-Jan-27 02:43 128 3 gusting 8 8.9
2020-Jan-27 02:33 120 3 gusting 8 8.3
2020-Jan-27 02:23 128 8.3
2020-Jan-27 02:13 141 8.3
2020-Jan-27 02:03 123 8.9